DW6111 Weather Reports


Display with metric or nautical units.
time (UTC)temp
F
wind
direction
speed
MPH
gust
MPH
rain 1hr
in
rain 24hr
in
rain mn
in
humidity
%
barometer
mb
20260508104514 58 360 0.0 4.0 0.00 0.00 0.00 100 1018.0
20260508103017 56 162 0.0 0.0 0.00 0.00 0.00 100 1018.1
20260508101510 56 163 0.0 1.0 0.00 0.00 0.00 100 1018.1
20260508100010 56 360 0.0 2.0 0.00 0.00 0.00 100 1018.2
20260508094507 56 180 0.0 3.0 0.00 0.00 0.00 100 1018.1
20260508093007 56 360 0.0 2.0 0.00 0.00 0.00 100 1018.1
20260508091507 57 360 0.0 3.0 0.00 0.00 0.00 100 1018.0
20260508090006 57 130 1.0 4.0 0.00 0.00 0.00 100 1018.0
20260508084502 55 210 0.0 2.0 0.00 0.00 0.00 100 1017.9
20260508083102 53 79 0.0 2.0 0.00 0.00 0.00 100 1017.9
20260508081624 53 44 0.0 2.0 0.00 0.00 0.00 100 1017.9
20260508080053 51 100 0.0 1.0 0.00 0.00 0.00 100 1017.9
20260508074549 50 99 0.0 1.0 0.00 0.00 0.00 100 1017.8
20260508073052 48 99 0.0 1.0 0.00 0.00 0.00 100 1017.8
20260508071549 47 93 0.0 0.0 0.00 0.00 0.00 100 1017.7
20260508070051 46 108 0.0 1.0 0.00 0.00 0.00 100 1017.4
20260508064543 45 107 0.0 0.0 0.00 0.00 0.00 100 1017.5
20260508063041 44 153 0.0 0.0 0.00 0.00 0.00 100 1017.2
20260508061541 43 155 0.0 1.0 0.00 0.00 0.00 100 1017.1
20260508060040 42 155 0.0 0.0 0.00 0.00 0.00 100 1017.0
20260508054542 41 178 0.0 2.0 0.00 0.00 0.00 100 1017.0
20260508053037 40 238 0.0 0.0 0.00 0.00 0.00 100 1016.9
20260508051537 39 180 0.0 0.0 0.00 0.00 0.00 100 1016.8
20260508050039 39 178 0.0 0.0 0.00 0.00 0.00 100 1016.8
20260508044544 39 179 0.0 3.0 0.00 0.00 0.00 100 1016.8
20260508043042 39 160 0.0 0.0 0.00 0.00 0.00 100 1016.8
20260508041533 39 180 0.0 0.0 0.00 0.00 0.00 100 1016.8
20260508040032 38 180 0.0 0.0 0.00 0.00 0.00 100 1016.6
20260508034538 38 180 0.0 0.0 0.00 0.00 0.00 100 1016.6
20260508033030 39 180 0.0 0.0 0.00 0.00 0.00 100 1016.6
20260508031528 39 180 0.0 0.0 0.00 0.00 0.00 100 1016.6
20260508030026 40 180 0.0 0.0 0.00 0.00 0.00 100 1016.6
20260508024530 40 180 0.0 0.0 0.00 0.00 0.00 100 1016.7
20260508023024 41 180 0.0 0.0 0.00 0.00 0.00 100 1016.6
20260508021520 41 180 0.0 0.0 0.00 0.00 0.00 100 1016.5
20260508020018 41 180 0.0 0.0 0.00 0.00 0.00 100 1016.4
20260508014516 42 180 0.0 0.0 0.00 0.00 0.00 100 1016.4
20260508013013 43 180 0.0 0.0 0.00 0.00 0.00 100 1016.4
20260508011513 43 180 0.0 0.0 0.00 0.00 0.00 100 1016.4
20260508010012 43 180 0.0 0.0 0.00 0.00 0.00 100 1016.5
20260508004513 43 180 0.0 0.0 0.00 0.00 0.00 100 1016.5
20260508003007 44 180 0.0 0.0 0.00 0.00 0.00 100 1016.6
20260508001505 45 180 0.0 0.0 0.00 0.00 0.00 100 1016.6
20260508000004 46 180 0.0 0.0 0.00 0.00 0.00 100 1016.6
20260507234604 47 180 0.0 0.0 0.00 0.00 0.00 100 1016.6
20260507233056 48 180 0.0 0.0 0.00 0.00 0.00 100 1016.6
20260507231557 48 180 0.0 0.0 0.00 0.00 0.00 100 1016.5
20260507230056 49 181 0.0 0.0 0.00 0.00 0.00 100 1016.5
20260507224551 49 180 0.0 0.0 0.00 0.00 0.00 100 1016.4
20260507223056 50 180 0.0 0.0 0.00 0.00 0.00 100 1016.4
20260507221551 50 180 0.0 1.0 0.00 0.00 0.00 100 1016.3
20260507220051 50 123 0.0 0.0 0.00 0.00 0.00 100 1016.3
20260507214549 51 124 0.0 0.0 0.00 0.00 0.00 100 1016.3
20260507213049 51 360 0.0 0.0 0.00 0.00 0.00 100 1016.4
20260507211548 51 123 0.0 0.0 0.00 0.00 0.00 100 1016.3
20260507210049 52 121 0.0 1.0 0.00 0.00 0.00 100 1016.3
20260507204545 52 360 0.0 2.0 0.00 0.00 0.00 100 1016.1
20260507203054 52 360 0.0 3.0 0.00 0.00 0.00 100 1016.0
20260507201545 53 360 0.0 3.0 0.00 0.00 0.00 100 1016.0
20260507200049 53 132 0.0 4.0 0.00 0.00 0.00 100 1015.8
20260507194544 53 360 1.0 6.0 0.00 0.00 0.00 100 1015.7
20260507193045 53 105 0.0 0.0 0.00 0.00 0.00 100 1015.5
20260507191542 53 360 0.0 1.0 0.00 0.00 0.00 100 1015.4
20260507190141 54 103 0.0 3.0 0.00 0.00 0.00 100 1015.4
20260507184543 54 101 1.0 4.0 0.00 0.00 0.00 100 1015.2
20260507183043 54 360 0.0 3.0 0.00 0.00 0.00 100 1015.2
20260507181538 55 131 0.0 3.0 0.00 0.00 0.00 100 1015.2
20260507180042 55 108 2.0 5.0 0.00 0.00 0.00 100 1015.0
20260507174539 55 120 1.0 4.0 0.00 0.00 0.00 100 1015.0
20260507173045 56 142 1.0 3.0 0.00 0.00 0.00 100 1015.0
20260507171546 56 155 0.0 3.0 0.00 0.00 0.00 100 1015.0
20260507170033 56 360 0.0 4.0 0.00 0.00 0.00 100 1015.1
20260507164541 56 86 0.0 6.0 0.00 0.00 0.00 100 1015.2
20260507163032 56 360 0.0 3.0 0.00 0.00 0.00 100 1015.2
20260507161540 56 115 0.0 3.0 0.00 0.00 0.00 100 1015.3
20260507160039 57 360 0.0 4.0 0.00 0.00 0.00 100 1015.3
20260507154534 57 99 0.0 3.0 0.00 0.00 0.00 100 1015.3
20260507153027 57 360 1.0 5.0 0.00 0.00 0.00 100 1015.4
20260507151537 57 360 2.0 5.0 0.00 0.00 0.00 100 1015.5
20260507150024 56 360 0.0 4.0 0.00 0.00 0.00 100 1015.6
20260507144522 56 360 0.0 4.0 0.00 0.00 0.00 100 1015.9
20260507143020 56 84 1.0 5.0 0.00 0.00 0.00 100 1016.1
20260507141520 56 360 1.0 6.0 0.00 0.00 0.00 100 1016.1
20260507140020 57 115 0.0 4.0 0.00 0.00 0.00 100 1016.2
20260507134528 57 50 1.0 5.0 0.00 0.00 0.00 100 1016.3
20260507133015 56 97 2.0 5.0 0.00 0.00 0.00 100 1016.4
20260507131518 55 82 0.0 6.0 0.00 0.00 0.00 100 1016.4
20260507130009 55 360 1.0 7.0 0.00 0.00 0.00 100 1016.5
20260507124507 54 360 2.0 5.0 0.00 0.00 0.00 100 1016.5
20260507123016 54 360 1.0 5.0 0.00 0.00 0.00 100 1016.6
20260507121502 52 360 1.0 4.0 0.00 0.00 0.00 100 1016.6
20260507120058 51 360 1.0 5.0 0.00 0.00 0.00 100 1016.7
20260507114559 50 134 1.0 4.0 0.00 0.00 0.00 100 1016.7
20260507113052 49 108 1.0 5.0 0.00 0.00 0.00 100 1016.9
20260507111551 49 360 0.0 3.0 0.00 0.00 0.00 100 1016.9